Regional Weather Roundup
Issued by NWS

Home | Current Version | Previous Version | Text Only | Print | Product List | Glossary On
Versions: 1 2 3 4 5 6 7 8 9 10 11 12 13 14 15 16 17 18 19 20 21 22 23 24 25 26 27 28 29 30 31 32 33 34 35 36 37 38 39 40 41 42 43 44 45 46 47 48 49 50
000
ASUS44 KFWD 230415
RWRTX
NORTH TEXAS HOURLY WEATHER ROUNDUP
NATIONAL WEATHER SERVICE FORT WORTH TX
1100 PM CDT SUN APR 22 2018

NOTE: "FAIR" INDICATES FEW OR NO CLOUDS BELOW 12,000 FEET WITH NO
SIGNIFICANT WEATHER AND/OR OBSTRUCTIONS TO VISIBILITY.

TXZ118-119-230500-
DALLAS/FORT WORTH METROPLEX

CITY           SKY/WX    TMP DP  RH WIND       PRES   REMARKS
DFW AIRPORT    FAIR      61  46  57 NW9       30.03S
DALLAS LOVE    FAIR      61  47  59 NW5       30.04S
FTW MEACHAM    FAIR      56  48  74 W5        30.05S
DAL-EXECUTIVE  FAIR      57  46  66 W7        30.04S
FTW-ALLIANCE   FAIR      55  46  71 W6        30.04F
FTW-NAS-JRB    FAIR      58  46  64 W6        30.06S
FTW-SPINKS     FAIR      56  46  68 W6        30.07S
ARLINGTON      FAIR      54  47  77 W5        30.05S
GRAND PRAIRIE  FAIR      61  44  54 W5        30.06F
ADDISON        FAIR      59  46  62 CALM      30.06S
MESQUITE       FAIR      57  46  66 W3        30.04S
LANCASTER      FAIR      55  46  74 W5        30.05F
$$

TXZ091>094-102>105-117-120-121-131>134-230500-
NORTH CENTRAL TEXAS

CITY           SKY/WX    TMP DP  RH WIND       PRES   REMARKS
SHRMAN/DENISON MOCLDY    55  50  81 CALM      30.05S
GAINESVILLE    FAIR      55  47  76 NW6       30.07S
BOWIE          FAIR      53  46  76 NW6       30.06S
BRIDGEPORT     FAIR      50  46  86 W3        30.08S
DECATUR        FAIR      55  45  70 CALM      30.05F
DENTON         FAIR      54  48  80 NW6       30.05R
MCKINNEY       FAIR      57  49  74 W6        30.04S
BONHAM         CLOUDY    55  49  80 N5        30.04S
GREENVILLE     MOCLDY    61  52  72 CALM      30.04S
ROCKWALL       FAIR      58  48  68 MISG      30.04S
TERRELL        FAIR      55  48  77 W5        30.04S
WAXAHACHIE     FAIR      56  47  72 W3        30.06S
CLEBURNE       FAIR      54  48  82 W5        30.08S
GRANBURY       FAIR      55  46  72 W6        30.09S
$$

TXZ083>090-098>101-113>116-127>130-139>142-154-155-230500-
WESTERN NORTH TEXAS

CITY           SKY/WX    TMP DP  RH WIND       PRES   REMARKS
WICHITA FALLS  FAIR      56  44  64 NW9       30.06S
WF-KICKAPOO    FAIR      59  44  57 NW5       30.09S
VERNON         FAIR      55  43  65 N7        30.10R
ABILENE        FAIR      60  37  42 CALM      30.10R
ABILENE-DYESS  FAIR      56  36  47 CALM      30.10R
GRAHAM           N/A     52  45  78 CALM      30.07S
BRECKENRIDGE   FAIR      57  41  55 NE5       30.08F
CISCO          FAIR      59  37  44 CALM      30.10R
EASTLAND       FAIR      54  40  60 NE6       30.09S
RANGER         FAIR      52  41  66 NE5       30.09S
MINERAL WELLS  FAIR      53  45  74 W5        30.06S
STEPHENVILLE   FAIR      58  42  55 N7        30.10S
COMANCHE       FAIR      59  40  50 N3        30.09S
COLEMAN        FAIR      57  36  45 CALM      30.10R
BRADY          FAIR      57  39  51 N7        30.10S
$$

TXZ143>147-156>162-174-175-230500-
CENTRAL TEXAS

CITY           SKY/WX    TMP DP  RH WIND       PRES   REMARKS
WACO           FAIR      48  45  89 W6        30.06S
WACO-TSTC      CLEAR     55  46  71 N8        30.06S
WACO-MCGREGOR  FAIR      56  46  69 NW6       30.07S
HILLSBORO      FAIR      51  49  93 CALM      30.06F
CORSICANA      FAIR      54  47  77 W6        30.06S
MEXIA          FAIR      55  45  67 NW7       30.05F
HEARNE         FAIR      55  47  74 CALM      30.07S
CAMERON        FAIR      57  47  69 CALM      30.07R
TEMPLE         FAIR      55  46  71 N6        30.07S
KILLEEN        PTCLDY    59  43  55 W3        30.08R
KILLEEN-SKYLRK FAIR      56  45  66 NE3       30.07S
FORT HOOD      FAIR      56  45  65 N6        30.03S
GATESVILLE     FAIR      54  45  71 CALM      30.09S
HAMILTON       FAIR      58  42  54 CALM      30.09S
LAMPASAS       FAIR      58  42  56 N5        30.07S
$$

TXZ095>097-106>112-122>126-135>138-148>153-164>167-230500-
EAST TEXAS

CITY           SKY/WX    TMP DP  RH WIND       PRES   REMARKS
PARIS          CLOUDY    55  49  80 NW6       30.02F
SULPHUR SPRNGS CLOUDY    58  51  77 NW5       30.05S
MOUNT PLEASANT CLOUDY    55  49  78 W3        30.04R
GILMER         CLOUDY    56  49  77 CALM      30.02S
MINEOLA        MOCLDY    57  50  77 CALM      30.03S
TYLER          CLOUDY    58  49  72 CALM      30.02S
LONGVIEW       CLOUDY    58  51  78 NW8       30.01R
MARSHALL       FAIR      53  48  83 NW6       30.02S
ATHENS         FAIR      52  50  93 CALM      30.03S
PALESTINE      FAIR      51  48  92 CALM      30.06R
JACKSONVILLE   CLOUDY    57  48  73 W3        30.05S
HENDERSON      CLOUDY    54  49  83 W3        30.03S
CENTER         FAIR      50  49  95 NW3       30.02S
NACOGDOCHES      N/A     51  50  96 CALM      30.03S
LUFKIN         FAIR      54  51  90 CALM      30.03R
$$

SUPPLEMENTAL OBSERVATIONS (NWS FORT WORTH AREA)

CITY           SKY/WX    TMP DP  RH WIND       PRES   REMARKS
DENISON DAM      N/A     57  50  77 N6          N/A
CADDO GRASSLND   N/A     52  50  93 NE1         N/A
LBJ GRASSLAND    N/A     52  45  76 N2          N/A
POSSUM KINGDOM   N/A     57  43  58 N2          N/A
GRANBURY         N/A     54  45  71 W6          N/A
COMANCHE         N/A     59  39  47 NW5         N/A
MCGREGOR         N/A     50  45  81 CALM        N/A
TEMPLE           N/A     57  43  58 N7          N/A
LAKE LIMESTONE   N/A     57  45  62 N6          N/A
ATHENS           N/A     54  50  87 CALM        N/A
PALESTINE        N/A     52  48  87 CALM        N/A
$$

SUPPLEMENTAL OBSERVATIONS (NWS NORMAN AREA)

CITY           SKY/WX    TMP DP  RH WIND       PRES   REMARKS
GOODLETT         N/A     54  38  54 N5        30.11S
ODELL            N/A     55  44  65 NW6       30.11R
CROWELL          N/A     56  40  55 N3        30.12S
KNOX CITY        N/A     59  35  41 NE8       30.10S
SEYMOUR          N/A     51  43  75 SW3       30.11R
MILLERS CREEK    N/A     54  45  71 S3          N/A
$$

SUPPLEMENTAL OBSERVATIONS (NWS SAN ANGELO AREA)

CITY           SKY/WX    TMP DP  RH WIND       PRES   REMARKS
WEINERT          N/A     56  37  49 E7        30.11S
HASKELL          N/A     56  35  44 NE6       30.10R
THROCKMORTON     N/A     53  47  78 CALM      30.11S
STAMFORD         N/A     55  35  46 NE7       30.11R
CLYDE            N/A     57  37  46 E1        30.12R
HAMBY            N/A     54  37  54 S3          N/A
IVIE RESERVOIR   N/A     63  37  39 NE6         N/A
COLORADO BEND    N/A     55  41  58 CALM        N/A
$$

SUPPLEMENTAL OBSERVATIONS (NWS SHREVEPORT AREA)

CITY           SKY/WX    TMP DP  RH WIND       PRES   REMARKS
TEXARKANA        N/A     55  50  82 W5          N/A
LINDEN           N/A     54  46  76 NW3         N/A
CADDO LAKE       N/A     50  48  93 CALM        N/A
LUFKIN           N/A     54  50  87 MISG        N/A
N SABINE NF      N/A     52  50  93 MISG        N/A
$$

SUPPLEMENTAL OBSERVATIONS ARE A COLLECTION OF AUTOMATED INSTRUMENTS
THAT ARE MAINTAINED BY A VARIETY OF FEDERAL AND STATE AGENCIES.
CERTAIN ELEMENTS...SUCH AS HUMIDITY VALUES AND SUSTAINED WIND
SPEEDS...MAY BE APPROXIMATED.




USA.gov is the U.S. government's official web portal to all federal, state and local government web resources and services.